^^
Station Historical Data
 
Daily Summary for September 25, 2021 Units:  English    Metric   Both
Daily Weekly Monthly Yearly
  Current: High: Low: Average:
Temperature: 60 °F 62.7 °F 60 °F 61.8 °F
Dew Point: 56.1 °F 56.2 °F 53.1 °F 54.5 °F
Humidity: 87% 87% 72% 77%
Wind Speed: 6mph 7mph 2mph 3.5mph
Wind Gust: 6mph 12mph - -
WindSouth - - ESE
Pressure: 29.77 in 29.82 in 29.74 in -
Precipitation: 0.00 in      
 
 
Tabular Data for September 25, 2021
Time Temperature Dew Point Pressure Wind Wind Speed Wind Gust Humidity Rainfall Rate (Hourly) solar
00:00 61.8 °F 54.9 °F 29.82 in North 2 mph 2 mph 78% 0.00 in 0 W/m2
00:05 61.7 °F 54.4 °F 29.81 in SSE 2 mph 2 mph 77% 0.00 in 0 W/m2
00:10 61.6 °F 54.7 °F 29.81 in NW 2 mph 2 mph 78% 0.00 in 0 W/m2
00:15 61.6 °F 54.7 °F 29.81 in NNW 2 mph 2 mph 78% 0.00 in 0 W/m2
00:20 61.6 °F 54.3 °F 29.81 in WNW 2 mph 3 mph 77% 0.00 in 0 W/m2
00:25 61.5 °F 54.6 °F 29.81 in NNE 2 mph 3 mph 78% 0.00 in 0 W/m2
00:30 61.5 °F 54.6 °F 29.81 in WNW 3 mph 3 mph 78% 0.00 in 0 W/m2
00:35 61.5 °F 54.2 °F 29.81 in NE 2 mph 5 mph 77% 0.00 in 0 W/m2
00:40 61.6 °F 54.7 °F 29.80 in NW 2 mph 2 mph 78% 0.00 in 0 W/m2
00:45 61.6 °F 54.3 °F 29.80 in East 2 mph 2 mph 77% 0.00 in 0 W/m2
00:50 61.7 °F 54.4 °F 29.80 in East 2 mph 2 mph 77% 0.00 in 0 W/m2
00:55 61.8 °F 54.2 °F 29.80 in North 2 mph 4 mph 76% 0.00 in 0 W/m2
01:00 62.2 °F 54.2 °F 29.79 in NNE 3 mph 4 mph 75% 0.00 in 0 W/m2
01:05 62.4 °F 54 °F 29.79 in ENE 3 mph 4 mph 74% 0.00 in 0 W/m2
01:10 62.5 °F 54.1 °F 29.79 in North 3 mph 3 mph 74% 0.00 in 0 W/m2
01:15 62.4 °F 53.6 °F 29.79 in NE 3 mph 5 mph 73% 0.00 in 0 W/m2
01:20 62.4 °F 54 °F 29.78 in West 3 mph 3 mph 74% 0.00 in 0 W/m2
01:25 62.3 °F 53.9 °F 29.78 in NE 3 mph 3 mph 74% 0.00 in 0 W/m2
01:30 62.3 °F 53.5 °F 29.78 in ESE 3 mph 3 mph 73% 0.00 in 0 W/m2
01:35 62.2 °F 53.4 °F 29.78 in North 3 mph 3 mph 73% 0.00 in 0 W/m2
01:40 62.2 °F 53.4 °F 29.78 in NE 3 mph 7 mph 73% 0.00 in 0 W/m2
01:45 62.1 °F 53.3 °F 29.77 in NE 3 mph 7 mph 73% 0.00 in 0 W/m2
01:50 62.1 °F 53.3 °F 29.77 in WNW 3 mph 3 mph 73% 0.00 in 0 W/m2
01:55 62 °F 53.2 °F 29.77 in NNE 3 mph 4 mph 73% 0.00 in 0 W/m2
02:00 62 °F 53.2 °F 29.77 in NNW 3 mph 3 mph 73% 0.00 in 0 W/m2
02:05 62 °F 53.2 °F 29.77 in NNE 3 mph 3 mph 73% 0.00 in 0 W/m2
02:15 62 °F 53.2 °F 29.76 in North 4 mph 4 mph 73% 0.00 in 0 W/m2
02:20 62.1 °F 53.3 °F 29.76 in ENE 4 mph 5 mph 73% 0.00 in 0 W/m2
02:25 62.2 °F 53.8 °F 29.76 in NNE 4 mph 5 mph 74% 0.00 in 0 W/m2
02:30 62.2 °F 53.4 °F 29.76 in North 4 mph 5 mph 73% 0.00 in 0 W/m2
02:35 62.2 °F 53.4 °F 29.76 in NNE 4 mph 4 mph 73% 0.00 in 0 W/m2
02:40 62.2 °F 53.1 °F 29.76 in NE 4 mph 4 mph 72% 0.00 in 0 W/m2
02:45 62.2 °F 53.4 °F 29.76 in NNE 4 mph 5 mph 73% 0.00 in 0 W/m2
02:50 62.2 °F 53.4 °F 29.75 in North 4 mph 5 mph 73% 0.00 in 0 W/m2
02:55 62.3 °F 53.5 °F 29.75 in NNW 4 mph 4 mph 73% 0.00 in 0 W/m2
03:00 62.4 °F 53.6 °F 29.75 in NNE 5 mph 5 mph 73% 0.00 in 0 W/m2
03:05 62.3 °F 53.5 °F 29.75 in NE 5 mph 5 mph 73% 0.00 in 0 W/m2
03:10 62.3 °F 53.5 °F 29.74 in NNE 5 mph 5 mph 73% 0.00 in 0 W/m2
03:15 62.4 °F 54 °F 29.74 in North 4 mph 5 mph 74% 0.00 in 0 W/m2
03:20 62.4 °F 54 °F 29.74 in NNW 4 mph 6 mph 74% 0.00 in 0 W/m2
03:25 62.3 °F 54.3 °F 29.75 in NNE 4 mph 6 mph 75% 0.00 in 0 W/m2
03:30 62.3 °F 54.3 °F 29.74 in NNE 4 mph 5 mph 75% 0.00 in 0 W/m2
03:35 62.4 °F 54.7 °F 29.75 in North 4 mph 6 mph 76% 0.00 in 0 W/m2
03:40 62.3 °F 54.6 °F 29.75 in NNE 4 mph 4 mph 76% 0.00 in 0 W/m2
03:45 62.3 °F 54.3 °F 29.75 in NNE 4 mph 4 mph 75% 0.00 in 0 W/m2
03:50 62.4 °F 54.7 °F 29.75 in North 4 mph 4 mph 76% 0.00 in 0 W/m2
03:55 62.5 °F 54.8 °F 29.75 in NNE 4 mph 4 mph 76% 0.00 in 0 W/m2
04:00 62.7 °F 55 °F 29.75 in NE 4 mph 5 mph 76% 0.00 in 0 W/m2
04:05 62.7 °F 54.7 °F 29.75 in ESE 4 mph 5 mph 75% 0.00 in 0 W/m2
04:10 62.6 °F 54.9 °F 29.75 in SE 3 mph 4 mph 76% 0.00 in 0 W/m2
04:15 62.5 °F 55.2 °F 29.75 in SE 3 mph 6 mph 77% 0.00 in 0 W/m2
04:20 62.2 °F 55.3 °F 29.75 in NE 3 mph 5 mph 78% 0.00 in 0 W/m2
04:25 62 °F 55.1 °F 29.76 in SSW 3 mph 5 mph 78% 0.00 in 0 W/m2
04:30 61.8 °F 55.2 °F 29.75 in SSE 3 mph 3 mph 79% 0.00 in 0 W/m2
04:35 61.6 °F 55.4 °F 29.75 in WSW 3 mph 3 mph 80% 0.00 in 0 W/m2
04:40 61.4 °F 55.2 °F 29.75 in SE 3 mph 3 mph 80% 0.00 in 0 W/m2
04:45 61.3 °F 55.4 °F 29.75 in North 3 mph 3 mph 81% 0.00 in 0 W/m2
04:50 61.2 °F 55.7 °F 29.75 in NE 3 mph 3 mph 82% 0.00 in 0 W/m2
04:55 61.1 °F 55.6 °F 29.75 in East 3 mph 5 mph 82% 0.00 in 0 W/m2
05:00 61 °F 55.5 °F 29.75 in NNE 3 mph 3 mph 82% 0.00 in 0 W/m2
05:05 60.8 °F 55.3 °F 29.75 in NNE 3 mph 3 mph 82% 0.00 in 0 W/m2
05:10 60.7 °F 55.5 °F 29.75 in NNE 3 mph 3 mph 83% 0.00 in 0 W/m2
05:15 60.7 °F 55.5 °F 29.75 in East 3 mph 4 mph 83% 0.00 in 0 W/m2
05:20 60.6 °F 55.7 °F 29.76 in SSE 3 mph 3 mph 84% 0.00 in 0 W/m2
05:25 60.7 °F 55.8 °F 29.75 in South 5 mph 5 mph 84% 0.00 in 0 W/m2
05:30 60.7 °F 56.2 °F 29.76 in SW 7 mph 8 mph 85% 0.00 in 0 W/m2
05:35 60.7 °F 56.2 °F 29.76 in SSW 7 mph 12 mph 85% 0.00 in 0 W/m2
05:40 60.4 °F 56.2 °F 29.76 in SW 6 mph 6 mph 86% 0.00 in 0 W/m2
05:45 60.1 °F 56.2 °F 29.76 in SW 6 mph 6 mph 87% 0.00 in 0 W/m2
05:50 60 °F 56.1 °F 29.77 in South 6 mph 6 mph 87% 0.00 in 0 W/m2
Sand Point, Michigan, USA
Compliments of Weather Underground - 2 mb